GW6917 Weather Reports


Display with metric or nautical units.
time (UTC)temp
F
wind
direction
speed
MPH
gust
MPH
rain 1hr
in
rain 24hr
in
rain mn
in
humidity
%
barometer
mb
20260502220534 51 0 0.0 1.0 0.00 0.00 0.00 83 1013.7
20260502220101 51 117 0.0 2.0 0.00 0.00 0.00 83 1013.8
20260502215534 51 0 0.0 2.0 0.00 0.00 0.00 83 1013.9
20260502215033 51 105 0.0 2.0 0.00 0.00 0.00 83 1013.8
20260502214608 52 152 1.0 2.0 0.00 0.00 0.00 82 1013.9
20260502214034 52 89 0.0 2.0 0.00 0.00 0.00 82 1013.9
20260502213536 52 89 0.0 2.0 0.00 0.00 0.00 82 1014.1
20260502213105 52 108 0.0 1.0 0.00 0.00 0.00 82 1014.0
20260502212534 52 124 0.0 2.0 0.00 0.00 0.00 82 1014.1
20260502212036 52 89 0.0 2.0 0.00 0.00 0.00 82 1014.1
20260502211553 52 89 0.0 2.0 0.00 0.00 0.00 82 1014.0
20260502211033 52 124 1.0 2.0 0.00 0.00 0.00 82 1014.2
20260502210534 52 108 0.0 2.0 0.00 0.00 0.00 81 1014.1
20260502210049 52 117 1.0 2.0 0.00 0.00 0.00 81 1014.2
20260502205533 52 135 1.0 2.0 0.00 0.00 0.00 81 1014.2
20260502205037 52 0 0.0 3.0 0.00 0.00 0.00 80 1014.2
20260502204549 53 28 1.0 3.0 0.00 0.00 0.00 81 1014.2
20260502204034 53 46 1.0 2.0 0.00 0.00 0.00 81 1014.2
20260502203533 53 28 1.0 2.0 0.00 0.00 0.00 81 1014.2
20260502203110 53 314 1.0 2.0 0.00 0.00 0.00 81 1014.3
20260502202535 53 1 0.0 2.0 0.00 0.00 0.00 81 1014.2
20260502202037 53 35 0.0 2.0 0.00 0.00 0.00 80 1014.3
20260502201549 53 46 1.0 2.0 0.00 0.00 0.00 80 1014.3
20260502201034 53 76 0.0 2.0 0.00 0.00 0.00 80 1014.3
20260502200535 53 72 0.0 3.0 0.00 0.00 0.00 79 1014.3
20260502200055 53 35 1.0 3.0 0.00 0.00 0.00 79 1014.4
20260502195533 53 23 1.0 2.0 0.00 0.00 0.00 79 1014.3
20260502195034 53 1 0.0 2.0 0.00 0.00 0.00 78 1014.4
20260502194550 53 0 0.0 3.0 0.00 0.00 0.00 78 1014.3
20260502194033 53 46 1.0 3.0 0.00 0.00 0.00 78 1014.3
20260502193535 53 331 1.0 3.0 0.00 0.00 0.00 78 1014.3
20260502193046 53 314 1.0 4.0 0.00 0.00 0.00 78 1014.2
20260502192533 54 0 1.0 4.0 0.00 0.00 0.00 78 1014.3
20260502192033 54 338 1.0 5.0 0.00 0.00 0.00 77 1014.3
20260502191549 54 324 1.0 7.0 0.00 0.00 0.00 77 1014.3
20260502191034 54 301 2.0 7.0 0.00 0.00 0.00 77 1014.2
20260502190536 54 296 2.0 7.0 0.00 0.00 0.00 78 1014.2
20260502190050 54 21 2.0 7.0 0.00 0.00 0.00 79 1014.1
20260502185534 54 336 3.0 7.0 0.00 0.00 0.00 79 1014.1
20260502185039 55 344 3.0 7.0 0.00 0.00 0.00 78 1014.2
20260502184545 55 353 3.0 7.0 0.00 0.00 0.00 78 1014.1
20260502184035 55 28 3.0 8.0 0.00 0.00 0.00 78 1014.1
20260502183534 55 321 3.0 8.0 0.00 0.00 0.00 78 1014.1
20260502183048 56 300 4.0 8.0 0.00 0.00 0.00 77 1014.1
20260502182534 56 8 4.0 8.0 0.00 0.00 0.00 76 1014.1
20260502182033 57 320 3.0 7.0 0.00 0.00 0.00 76 1014.0
20260502181549 57 353 4.0 7.0 0.00 0.00 0.00 76 1014.0
20260502181033 57 331 2.0 6.0 0.00 0.00 0.00 75 1013.9
20260502180534 58 25 2.0 8.0 0.00 0.00 0.00 75 1013.9
20260502164033 60 286 4.0 8.0 0.00 0.05 0.00 71 1014.2
20260502163534 59 347 3.0 8.0 0.00 0.05 0.00 72 1014.2
20260502163109 59 279 4.0 10.0 0.00 0.05 0.00 71 1014.2
20260502162535 59 56 3.0 10.0 0.00 0.05 0.00 71 1014.2
20260502162033 60 280 3.0 9.0 0.00 0.05 0.00 71 1014.3
20260502161604 60 283 4.0 9.0 0.00 0.05 0.00 70 1014.3
20260502161033 60 314 4.0 9.0 0.00 0.05 0.00 70 1014.4
20260502160534 60 269 4.0 9.0 0.00 0.05 0.00 71 1014.4
20260502152034 58 284 6.0 11.0 0.00 0.06 0.00 76 1014.9
20260502151549 58 350 4.0 11.0 0.00 0.06 0.00 76 1014.9
20260502151034 58 278 5.0 11.0 0.00 0.06 0.00 75 1015.0
20260502150534 58 284 5.0 11.0 0.00 0.06 0.00 74 1015.1
20260502130533 58 257 5.0 11.0 0.00 0.06 0.00 75 1015.9
20260502123533 57 18 4.0 12.0 0.00 0.06 0.00 78 1016.1
20260502123108 57 314 4.0 12.0 0.00 0.06 0.00 77 1016.0
20260502122534 57 1 6.0 12.0 0.00 0.06 0.00 78 1016.2
20260502122036 57 318 5.0 11.0 0.00 0.06 0.00 78 1016.2
20260502121545 57 255 5.0 10.0 0.00 0.06 0.00 78 1016.2
20260502121034 57 317 2.0 10.0 0.00 0.06 0.00 79 1016.2
20260502120533 57 292 4.0 10.0 0.00 0.06 0.00 79 1016.2
20260502120107 57 27 6.0 12.0 0.00 0.06 0.00 79 1016.1
20260502115533 56 322 5.0 12.0 0.00 0.06 0.00 79 1016.3
20260502115033 56 302 6.0 12.0 0.00 0.06 0.00 79 1016.3
20260502114548 57 293 6.0 12.0 0.00 0.06 0.00 80 1016.2
20260502114035 56 338 5.0 12.0 0.00 0.06 0.00 80 1016.2
20260502113535 56 315 4.0 12.0 0.00 0.06 0.00 80 1016.3
20260502113050 56 272 6.0 15.0 0.00 0.06 0.00 81 1016.2
20260502112532 55 279 6.0 15.0 0.00 0.06 0.00 81 1016.3
20260502112035 56 294 6.0 14.0 0.00 0.06 0.00 81 1016.5
20260502111547 55 286 7.0 14.0 0.00 0.06 0.00 83 1016.5
20260502111034 55 304 6.0 14.0 0.00 0.06 0.00 84 1016.3
20260502110534 55 297 5.0 11.0 0.00 0.06 0.00 84 1016.3
20260502110052 54 295 5.0 13.0 0.00 0.06 0.00 85 1016.4
20260502105534 54 347 5.0 13.0 0.00 0.06 0.00 85 1016.5
20260502105033 54 337 6.0 13.0 0.00 0.06 0.00 85 1016.4
20260502104544 54 336 6.0 12.0 0.00 0.06 0.00 85 1016.4
20260502104033 54 290 6.0 12.0 0.00 0.06 0.00 86 1016.4
20260502103533 53 276 7.0 12.0 0.00 0.06 0.00 86 1016.5
20260502103045 54 301 4.0 10.0 0.00 0.06 0.00 87 1016.4
20260502102533 53 284 3.0 10.0 0.00 0.06 0.00 87 1016.5
20260502102033 53 284 5.0 12.0 0.00 0.06 0.00 87 1016.4
20260502101548 54 339 5.0 12.0 0.00 0.06 0.00 87 1016.4
20260502101033 54 307 5.0 10.0 0.00 0.06 0.00 87 1016.4
20260502100533 54 290 4.0 11.0 0.00 0.06 0.00 88 1016.4
20260502091034 52 0 0.0 2.0 0.00 0.06 0.00 94 1016.5
20260502090534 52 223 0.0 2.0 0.00 0.06 0.00 94 1016.4
20260502080108 50 231 1.0 3.0 0.00 0.06 0.00 94 1016.7
20260502071033 48 0 0.0 2.0 0.00 0.06 0.00 94 1016.5
20260502070533 48 0 0.0 2.0 0.00 0.06 0.00 94 1016.4
20260502070106 48 46 0.0 2.0 0.00 0.06 0.00 94 1016.4
20260502065532 47 314 0.0 2.0 0.00 0.06 0.00 94 1016.5
20260502065033 47 0 0.0 2.0 0.00 0.06 0.00 94 1016.5
20260502064552 47 46 1.0 2.0 0.00 0.06 0.00 94 1016.4
20260502064036 47 39 1.0 2.0 0.00 0.06 0.00 94 1016.4
20260502063534 47 51 0.0 2.0 0.00 0.06 0.00 94 1016.5
20260502063045 47 89 0.0 2.0 0.00 0.06 0.00 94 1016.4
20260502062535 47 46 0.0 2.0 0.00 0.06 0.00 94 1016.5
20260502062035 47 15 0.0 2.0 0.00 0.06 0.00 94 1016.5
20260502061541 47 0 0.0 2.0 0.00 0.06 0.00 94 1016.5
20260502061037 46 0 0.0 2.0 0.00 0.06 0.00 94 1016.4
20260502060533 46 89 0.0 2.0 0.00 0.06 0.00 94 1016.5
20260502060052 46 89 0.0 2.0 0.00 0.06 0.00 94 1016.5
20260502055535 46 98 1.0 2.0 0.00 0.06 0.00 94 1016.5
20260502055035 46 46 1.0 2.0 0.00 0.06 0.00 94 1016.4
20260502054548 46 39 1.0 2.0 0.00 0.06 0.00 93 1016.4
20260502054033 46 124 0.0 2.0 0.00 0.06 0.00 93 1016.4
20260502053533 46 46 1.0 2.0 0.00 0.06 0.00 93 1016.3
20260502053045 46 72 1.0 2.0 0.00 0.06 0.00 93 1016.4
20260502052533 46 0 0.0 2.0 0.00 0.06 0.00 93 1016.4
20260502052037 46 135 0.0 3.0 0.00 0.06 0.00 93 1016.3
20260502051558 46 46 0.0 3.0 0.00 0.06 0.00 94 1016.4
20260502051034 45 0 0.0 2.0 0.00 0.06 0.00 93 1016.3
20260502050533 45 0 0.0 2.0 0.00 0.06 0.00 93 1016.4
20260502050047 45 0 0.0 2.0 0.00 0.06 0.00 93 1016.2
20260502045536 45 165 0.0 2.0 0.00 0.06 0.00 93 1016.4
20260502045035 45 0 0.0 2.0 0.00 0.06 0.00 93 1016.4
20260502044547 45 39 0.0 2.0 0.00 0.06 0.00 93 1016.4
20260502044033 45 0 0.0 2.0 0.00 0.06 0.00 93 1016.2
20260502043533 45 140 0.0 2.0 0.00 0.06 0.00 93 1016.2
20260502043048 45 124 1.0 2.0 0.00 0.06 0.00 93 1016.3
20260502042533 45 0 0.0 2.0 0.00 0.06 0.00 93 1016.3
20260502042035 44 108 0.0 2.0 0.00 0.06 0.00 93 1016.3
20260502041547 44 89 0.0 2.0 0.00 0.06 0.00 93 1016.4
20260502041033 44 0 0.0 1.0 0.00 0.06 0.00 93 1016.4
20260502040533 44 0 0.0 1.0 0.00 0.06 0.00 93 1016.5
20260502040045 44 0 0.0 3.0 0.00 0.06 0.00 93 1016.5
20260502035535 44 1 0.0 3.0 0.00 0.06 0.00 93 1016.6
20260502035034 44 203 0.0 1.0 0.00 0.06 0.00 92 1016.4
20260502034542 44 0 0.0 1.0 0.00 0.06 0.00 93 1016.5
20260502034036 44 0 0.0 2.0 0.00 0.06 0.00 92 1016.6
20260502033534 44 0 0.0 2.0 0.00 0.06 0.00 92 1016.5
20260502033051 44 46 0.0 1.0 0.00 0.06 0.00 92 1016.5
20260502032533 44 0 0.0 2.0 0.00 0.06 0.00 92 1016.6
20260502032033 44 0 0.0 2.0 0.00 0.06 0.00 92 1016.5
20260502031544 44 23 0.0 2.0 0.00 0.06 0.00 92 1016.6
20260502031036 44 0 0.0 2.0 0.00 0.06 0.00 92 1016.6
20260502030534 44 0 0.0 2.0 0.00 0.06 0.00 92 1016.6
20260502030045 44 0 0.0 2.0 0.00 0.06 0.00 92 1016.7
20260502025533 44 201 1.0 2.0 0.00 0.06 0.00 92 1016.8
20260502025035 44 0 0.0 2.0 0.00 0.06 0.00 92 1016.9
20260502024548 44 105 0.0 2.0 0.00 0.06 0.00 92 1016.8
20260502024036 44 0 0.0 2.0 0.00 0.06 0.00 92 1016.7
20260502023533 44 124 0.0 2.0 0.00 0.06 0.00 92 1016.8
20260502023045 44 89 0.0 3.0 0.00 0.06 0.00 92 1017.0
20260502022534 44 89 0.0 3.0 0.00 0.06 0.00 92 1017.1
20260502022035 45 122 1.0 3.0 0.00 0.06 0.00 92 1017.2
20260502021542 45 152 1.0 3.0 0.00 0.06 0.00 92 1017.3
20260502021035 45 100 1.0 3.0 0.00 0.06 0.00 92 1017.2
20260502020534 45 56 1.0 3.0 0.00 0.06 0.00 92 1017.3
20260502020041 45 145 1.0 2.0 0.00 0.06 0.00 91 1017.3
20260502015534 45 124 0.0 2.0 0.00 0.06 0.00 91 1017.3
20260502015037 45 0 1.0 2.0 0.00 0.06 0.00 91 1017.5
20260502014547 45 0 1.0 4.0 0.00 0.06 0.00 92 1017.5
20260502014035 45 152 2.0 4.0 0.00 0.06 0.00 91 1017.5
20260502013534 46 0 0.0 2.0 0.00 0.06 0.00 91 1017.5
20260502013048 46 0 0.0 2.0 0.00 0.06 0.00 91 1017.7
20260502012535 46 89 0.0 2.0 0.00 0.06 0.00 91 1017.6
20260502012035 46 0 0.0 2.0 0.00 0.06 0.00 91 1017.7
20260502011546 46 0 0.0 2.0 0.00 0.06 0.00 91 1017.8
20260502011033 46 135 1.0 2.0 0.00 0.06 0.00 91 1017.9
20260502010535 46 46 0.0 2.0 0.00 0.06 0.00 91 1017.8
20260502010049 46 108 1.0 3.0 0.00 0.06 0.00 91 1017.8
20260502005535 46 0 0.0 3.0 0.00 0.06 0.00 91 1018.0
20260502005038 46 130 1.0 3.0 0.00 0.06 0.00 91 1017.9
20260502004541 46 98 0.0 2.0 0.00 0.06 0.00 91 1018.0
20260502004039 46 79 1.0 2.0 0.00 0.06 0.00 90 1018.0
20260502003533 47 72 0.0 2.0 0.00 0.06 0.00 90 1018.0
20260502003045 47 223 1.0 2.0 0.00 0.06 0.00 90 1018.1
20260502002533 47 117 0.0 1.0 0.00 0.06 0.00 90 1018.1
20260502002033 47 241 0.0 2.0 0.00 0.06 0.00 90 1018.2
20260502001552 47 241 0.0 2.0 0.00 0.06 0.00 90 1018.2
20260502001035 47 213 0.0 1.0 0.00 0.06 0.00 90 1018.2
20260502000535 47 296 0.0 1.0 0.00 0.06 0.00 91 1018.1
20260502000056 47 0 0.0 3.0 0.00 0.06 0.00 91 1018.2
20260501235535 48 117 0.0 3.0 0.00 0.06 0.00 90 1018.3
20260501235033 48 60 0.0 2.0 0.00 0.06 0.00 90 1018.3
20260501234558 48 269 0.0 2.0 0.00 0.06 0.00 90 1018.3
20260501234034 48 241 0.0 2.0 0.00 0.06 0.00 90 1018.2
20260501233534 48 0 0.0 3.0 0.00 0.06 0.00 90 1018.4
20260501233052 48 287 0.0 3.0 0.00 0.06 0.00 90 1018.2
20260501232533 49 197 1.0 3.0 0.00 0.06 0.00 91 1018.2
20260501232033 49 0 0.0 2.0 0.00 0.06 0.00 91 1018.3
20260501231555 49 117 0.0 2.0 0.00 0.06 0.00 91 1018.4
20260501231033 49 0 0.0 2.0 0.00 0.06 0.00 91 1018.4
20260501230533 49 223 0.0 2.0 0.00 0.06 0.00 91 1018.3
20260501230104 50 0 0.0 2.0 0.00 0.06 0.00 91 1018.5
20260501225534 50 108 0.0 2.0 0.00 0.06 0.06 91 1018.4
20260501225036 50 152 0.0 2.0 0.00 0.06 0.06 91 1018.3
20260501224600 50 250 0.0 4.0 0.00 0.06 0.06 91 1018.3
20260501224035 50 113 1.0 4.0 0.00 0.06 0.06 91 1018.4
20260501223536 50 159 1.0 4.0 0.00 0.06 0.06 91 1018.3
20260501223055 50 89 1.0 2.0 0.00 0.06 0.06 91 1018.5
20260501222538 51 117 1.0 2.0 0.00 0.06 0.06 91 1018.6
20260501222035 51 89 0.0 2.0 0.00 0.06 0.06 91 1018.7
20260501221556 51 135 0.0 2.0 0.00 0.06 0.06 91 1018.6
20260501221033 51 135 0.0 2.0 0.00 0.06 0.06 91 1018.7